| time (UTC) | temp F | wind direction | speed MPH | gust MPH | rain 1hr in | rain 24hr in | rain mn in | humidity % | barometer mb |
| 20260901121930 | 78 | 220 | 0.0 | 0.0 | 0.00 | 0.00 | 0.00 | ||
| 20260901120430 | 78 | 220 | 0.0 | 0.0 | 0.00 | 0.00 | 0.00 | ||
| 20260901114930 | 78 | 220 | 0.0 | 0.0 | 0.00 | 0.00 | 0.00 | ||
| 20260901112930 | 78 | 220 | 0.0 | 0.0 | 0.00 | 0.00 | 0.00 | ||
| 20260901112431 | 78 | 220 | 0.0 | 0.0 | 0.00 | 0.00 | 0.00 | ||
| 20260901110431 | 79 | 220 | 0.0 | 0.0 | 0.00 | 0.00 | 0.00 | ||
| 20260901105931 | 79 | 220 | 0.0 | 0.0 | 0.00 | 0.00 | 0.00 | ||
| 20260901104931 | 79 | 220 | 0.0 | 0.0 | 0.00 | 0.00 | 0.00 | ||
| 20260901103931 | 79 | 220 | 0.0 | 0.0 | 0.00 | 0.00 | 0.00 | ||
| 20260901101931 | 80 | 220 | 0.0 | 0.0 | 0.00 | 0.00 | 0.00 | ||
| 20260901090931 | 83 | 176 | 1.0 | 2.0 | 0.00 | 0.00 | 0.00 | ||
| 20260901085931 | 83 | 246 | 4.0 | 5.0 | 0.00 | 0.00 | 0.00 | ||
| 20260901081431 | 85 | 184 | 1.0 | 1.0 | 0.00 | 0.00 | 0.00 | ||
| 20260901080431 | 85 | 13 | 2.0 | 2.0 | 0.00 | 0.00 | 0.00 | ||
| 20260901072931 | 84 | 108 | 1.0 | 2.0 | 0.00 | 0.00 | 0.00 | ||
| 20260901070931 | 82 | 344 | 0.0 | 0.0 | 0.00 | 0.00 | 0.00 | ||
| 20260901063432 | 81 | 11 | 0.0 | 0.0 | 0.00 | 0.00 | 0.00 | ||
| 20260901062432 | 81 | 11 | 0.0 | 0.0 | 0.00 | 0.00 | 0.00 | ||
| 20260901060932 | 82 | 11 | 0.0 | 0.0 | 0.00 | 0.00 | 0.00 | ||
| 20260901055432 | 82 | 11 | 0.0 | 0.0 | 0.00 | 0.00 | 0.00 | ||
| 20260901053932 | 82 | 11 | 0.0 | 0.0 | 0.00 | 0.00 | 0.00 | ||
| 20260901044432 | 83 | 11 | 0.0 | 0.0 | 0.00 | 0.00 | 0.00 | ||
| 20260901015932 | 91 | 134 | 0.0 | 0.0 | 0.00 | 0.00 | 0.00 | ||
| 20260901012932 | 92 | 14 | 0.0 | 0.0 | 0.00 | 0.00 | 0.00 | ||
| 20260901012433 | 92 | 14 | 0.0 | 0.0 | 0.00 | 0.00 | 0.00 | ||
| 20260831221936 | 101 | 149 | 2.0 | 4.0 | 0.00 | 0.00 | 0.00 | ||
| 20260831210933 | 102 | 175 | 4.0 | 7.0 | 0.00 | 0.00 | 0.00 | ||
| 20260831200933 | 101 | 61 | 5.0 | 7.0 | 0.00 | 0.00 | 0.00 | ||
| 20260831193433 | 103 | 111 | 3.0 | 8.0 | 0.00 | 0.00 | 0.00 | ||
| 20260831183933 | 98 | 184 | 2.0 | 3.0 | 0.00 | 0.00 | 0.00 | ||
| 20260831180433 | 101 | 242 | 7.0 | 4.0 | 0.00 | 0.00 | 0.00 | ||
| 20260831175933 | 102 | 241 | 2.0 | 1.0 | 0.00 | 0.00 | 0.00 | ||
| 20260831175433 | 101 | 225 | 2.0 | 4.0 | 0.00 | 0.00 | 0.00 | ||
| 20260831173933 | 102 | 79 | 3.0 | 4.0 | 0.00 | 0.00 | 0.00 | ||
| 20260831172433 | 100 | 141 | 4.0 | 2.0 | 0.00 | 0.00 | 0.00 | ||
| 20260831171936 | 100 | 69 | 3.0 | 3.0 | 0.00 | 0.00 | 0.00 | ||
| 20260831170933 | 100 | 163 | 3.0 | 3.0 | 0.00 | 0.00 | 0.00 | ||
| 20260831170433 | 98 | 34 | 3.0 | 2.0 | 0.00 | 0.00 | 0.00 | ||
| 20260831165933 | 99 | 229 | 4.0 | 5.0 | 0.00 | 0.00 | 0.00 | ||
| 20260831165434 | 100 | 110 | 2.0 | 2.0 | 0.00 | 0.00 | 0.00 |